G2496 Weather Reports


Display with metric or nautical units.
time (UTC)temp
F
wind
direction
speed
MPH
gust
MPH
rain 1hr
in
rain 24hr
in
rain mn
in
humidity
%
barometer
mb
20260505111122 54 114 1.0 3.0 0.00 0.00 0.00 85 1003.8
20260505110122 55 347 0.0 2.0 0.00 0.00 0.00 85 1003.7
20260505102122 54 75 1.0 3.0 0.00 0.00 0.00 85 1003.4
20260505101122 54 130 1.0 3.0 0.00 0.00 0.00 85 1003.4
20260505100122 54 23 1.0 4.0 0.00 0.00 0.00 85 1003.4
20260505095122 54 24 0.0 3.0 0.00 0.00 0.00 86 1003.4
20260505094122 54 83 1.0 3.0 0.00 0.00 0.00 86 1003.4
20260505093143 54 50 1.0 3.0 0.00 0.00 0.00 85 1003.3
20260505092122 55 40 1.0 4.0 0.00 0.00 0.00 85 1003.2
20260505091122 55 18 3.0 4.0 0.00 0.00 0.00 84 1003.2
20260505090122 55 7 3.0 4.0 0.00 0.00 0.00 84 1003.0
20260505085122 55 21 3.0 4.0 0.00 0.00 0.00 83 1003.0
20260505084122 55 22 3.0 5.0 0.00 0.00 0.00 83 1003.0
20260505083122 55 13 3.0 5.0 0.00 0.00 0.00 83 1002.9
20260505082122 55 16 4.0 7.0 0.00 0.00 0.00 83 1002.8
20260505081143 55 11 4.0 9.0 0.00 0.00 0.00 83 1002.8
20260505080122 55 10 4.0 7.0 0.00 0.00 0.00 82 1002.8
20260505075122 55 14 4.0 7.0 0.00 0.00 0.00 82 1002.8
20260505074122 55 16 4.0 6.0 0.00 0.00 0.00 83 1002.5
20260505073122 55 7 5.0 8.0 0.00 0.00 0.00 82 1002.5
20260505072122 55 20 4.0 8.0 0.00 0.00 0.00 81 1002.4
20260505071143 56 13 3.0 7.0 0.00 0.00 0.00 80 1002.2
20260505070123 56 12 5.0 8.0 0.00 0.00 0.00 80 1002.2
20260505065122 56 18 4.0 9.0 0.00 0.00 0.00 79 1001.9
20260505064122 57 15 5.0 9.0 0.00 0.00 0.00 77 1001.7
20260505063122 58 9 3.0 6.0 0.00 0.00 0.00 76 1001.7
20260505062122 58 348 4.0 6.0 0.00 0.00 0.00 75 1001.5
20260505061143 59 11 3.0 6.0 0.00 0.00 0.00 74 1001.5
20260505060122 59 5 4.0 7.0 0.00 0.00 0.00 73 1001.3
20260505055122 60 25 4.0 8.0 0.00 0.00 0.00 72 1001.3
20260505054122 60 30 4.0 7.0 0.00 0.00 0.00 70 1001.1
20260505053123 60 34 4.0 5.0 0.00 0.00 0.00 70 1001.1
20260505052122 61 43 4.0 8.0 0.00 0.00 0.00 68 1001.1
20260505051143 62 38 4.0 7.0 0.00 0.00 0.00 66 1001.0
20260505050122 63 13 6.0 10.0 0.00 0.00 0.00 65 1000.8
20260505041122 66 30 6.0 11.0 0.00 0.00 0.00 60 1000.3
20260505040122 67 17 7.0 10.0 0.00 0.00 0.00 58 1000.1
20260505035122 68 9 5.0 7.0 0.00 0.00 0.00 58 999.9
20260505034122 68 12 5.0 10.0 0.00 0.00 0.00 57 999.8
20260505033123 70 13 4.0 8.0 0.00 0.00 0.00 59 999.7
20260505032122 71 345 1.0 4.0 0.00 0.00 0.00 58 999.2
20260505031122 72 282 2.0 6.0 0.00 0.00 0.00 57 999.2
20260505030122 71 300 2.0 4.0 0.00 0.00 0.00 58 999.1
20260505025122 73 323 1.0 4.0 0.00 0.00 0.00 55 999.0
20260505024122 74 254 3.0 5.0 0.00 0.00 0.00 52 998.9
20260505023122 73 297 2.0 9.0 0.00 0.00 0.00 55 998.9
20260505022122 74 241 1.0 3.0 0.00 0.00 0.00 52 998.8
20260505021122 76 296 3.0 6.0 0.00 0.00 0.00 50 998.8
20260505020122 75 257 2.0 4.0 0.00 0.00 0.00 51 998.9
20260505015122 76 217 3.0 6.0 0.00 0.00 0.00 50 998.9
20260505014122 74 203 3.0 7.0 0.00 0.00 0.00 51 998.8
20260505013122 79 243 3.0 7.0 0.00 0.00 0.00 45 998.9
20260505012122 77 231 2.0 5.0 0.00 0.00 0.00 47 999.1
20260505011143 80 301 4.0 8.0 0.00 0.00 0.00 43 999.1
20260505010122 77 252 3.0 8.0 0.00 0.00 0.00 46 999.1
20260505005122 79 306 2.0 9.0 0.00 0.00 0.00 44 999.1
20260505004122 76 177 2.0 5.0 0.00 0.00 0.00 47 999.1
20260505003122 81 273 3.0 6.0 0.00 0.00 0.00 40 999.4
20260505002122 78 315 3.0 7.0 0.00 0.00 0.00 44 999.2
20260505001122 77 305 3.0 7.0 0.00 0.00 0.00 44 999.3
20260505000143 77 322 4.0 7.0 0.00 0.00 0.00 44 999.5
20260504235122 77 292 2.0 5.0 0.00 0.00 0.00 44 999.4
20260504234122 78 275 3.0 6.0 0.00 0.00 0.00 43 999.6
20260504233143 75 242 3.0 6.0 0.00 0.00 0.00 46 999.6
20260504232122 76 307 2.0 9.0 0.00 0.00 0.00 46 999.6
20260504231122 74 188 4.0 7.0 0.00 0.00 0.00 47 999.7
20260504230143 74 220 3.0 8.0 0.00 0.00 0.00 48 999.9
20260504225144 74 306 2.0 6.0 0.00 0.00 0.00 47 1000.0
20260504224143 75 298 2.0 6.0 0.00 0.00 0.00 46 1000.0
20260504223123 74 338 4.0 9.0 0.00 0.00 0.00 46 1000.3
20260504222123 73 331 4.0 8.0 0.00 0.00 0.00 47 1000.4
20260504221122 74 248 4.0 7.0 0.00 0.00 0.00 48 1000.5
20260504220123 74 294 2.0 6.0 0.00 0.00 0.00 47 1000.6
20260504215122 73 247 2.0 5.0 0.00 0.00 0.00 48 1000.6
20260504214123 70 190 4.0 8.0 0.00 0.00 0.00 51 1000.7
20260504213122 72 243 3.0 7.0 0.00 0.00 0.00 48 1000.9
20260504212122 72 277 3.0 9.0 0.00 0.00 0.00 50 1001.0
20260504211122 70 320 4.0 9.0 0.00 0.00 0.00 52 1001.2
20260504210122 71 276 2.0 4.0 0.00 0.00 0.00 50 1001.3
20260504205122 70 192 3.0 8.0 0.00 0.00 0.00 52 1001.4
20260504204123 68 191 3.0 6.0 0.00 0.00 0.00 56 1001.5
20260504203122 69 223 3.0 5.0 0.00 0.00 0.00 54 1001.8
20260504202122 69 199 4.0 6.0 0.00 0.00 0.00 54 1001.8
20260504201122 69 271 3.0 7.0 0.00 0.00 0.00 53 1001.8
20260504200122 68 215 4.0 11.0 0.00 0.00 0.00 54 1002.0
20260504195143 66 223 3.0 8.0 0.00 0.00 0.00 58 1002.1
20260504194123 67 215 3.0 7.0 0.00 0.00 0.00 57 1002.1
20260504193123 66 253 4.0 12.0 0.00 0.00 0.00 59 1002.1
20260504192143 65 331 4.0 6.0 0.00 0.00 0.00 61 1002.2
20260504191122 65 172 1.0 4.0 0.00 0.00 0.00 61 1002.3
20260504190122 64 322 3.0 7.0 0.00 0.00 0.00 63 1002.4
20260504185122 63 310 2.0 4.0 0.00 0.00 0.00 64 1002.6
20260504184123 62 287 2.0 8.0 0.00 0.00 0.00 67 1002.7
20260504183122 61 202 4.0 7.0 0.00 0.00 0.00 68 1002.6
20260504182143 60 215 3.0 7.0 0.00 0.00 0.00 71 1002.6
20260504181122 60 189 4.0 8.0 0.00 0.00 0.00 71 1002.6
20260504180122 60 195 4.0 7.0 0.00 0.00 0.00 71 1002.6
20260504175122 59 182 2.0 8.0 0.00 0.00 0.00 72 1002.6
20260504174143 59 178 2.0 6.0 0.00 0.00 0.00 73 1002.8
20260504173123 59 187 4.0 8.0 0.00 0.00 0.00 72 1002.6
20260504172122 60 283 2.0 6.0 0.00 0.00 0.00 71 1002.6
20260504171143 59 195 4.0 8.0 0.00 0.00 0.00 72 1002.5
20260504170122 59 213 3.0 6.0 0.00 0.00 0.00 72 1002.5
20260504160122 58 205 4.0 7.0 0.00 0.00 0.00 74 1002.4
20260504151122 59 192 4.0 8.0 0.00 0.00 0.00 72 1002.1
20260504150122 58 183 4.0 7.0 0.00 0.00 0.00 75 1001.9
20260504141143 56 168 4.0 8.0 0.00 0.00 0.00 78 1001.4
20260504140122 56 179 2.0 3.0 0.00 0.00 0.00 79 1001.3
20260504130143 57 181 2.0 5.0 0.00 0.00 0.00 76 1000.2
20260504120122 58 181 3.0 5.0 0.00 0.00 0.00 74 999.3